Location: Newark
(11.2914°S, 14.4718°E)
Time: 07:51:08
(UTC+00:00)

Vanguard 2 - Pass Details

Date: 23 September 2019
Orbit: 554 x 2937 km, 32.9° (Epoch: 18 October)

Event Time Altitude Azimuth Distance (km) Brightness Sun altitude
Rises 16:58:26 0° 228° (SW) 4,478 12.3 -0.9°
Reaches altitude 10° 17:01:34 10° 217° (SW) 3,823 11.7 -1.7°
Maximum altitude 17:10:47 31° 157° (SSE) 3,261 10.5 -4.0°
Drops below altitude 10° 17:23:54 10° 101° (E) 5,488 11.2 -7.2°
Enters shadow 17:25:25 - 98° (E) 5,813 11.3 -7.5°
